Hourly Data Report for October 25, 2013

All times are specified in Local Standard Time (LST). Add 1 hour to adjust for Daylight Saving Time where and when it is observed.

IQALUIT CLIMATE
NUNAVUT

63°44'50.000" N
68°32'40.000" W
33.50 m
2402592
71321
XFB

Download Data

Hourly Data (October 2013)
Hourly Data Report for October 25, 2013
Temp Definition
°C
Dew Point Temp Definition
°C
Rel Hum Definition
%
Wind Dir Definition
10's deg

Wind Spd Definition
km/h
Visibility Definition
km
Stn Press Definition
kPa
Hmdx Definition


Wind Chill Definition


Weather Definition


TIME
00:00 -3.6 -6.7 79 1 11   100.04   -8 LegendNANA
01:00 -3.2 -6.6 77 1 9   100.05   -7 LegendNANA
02:00 -3.3 -6.7 77 35 13   100.04   -8 LegendNANA
03:00 -3.5 -6.5 80 33 13   100.00   -8 LegendNANA
04:00 -2.6 -7.6 68 3 13   99.99   -7 LegendNANA
05:00 -3.1 -6.5 77 33 13   99.97   -8 LegendNANA
06:00 -4.3 -8.1 75 35 15   99.96   -10 LegendNANA
07:00 -4.6 -8.4 75 36 17   99.97   -10 LegendNANA
08:00 -4.0 -8.5 71 36 19   99.96   -10 LegendNANA
09:00 -3.5 -8.0 71 35 19   99.94   -9 LegendNANA
10:00 -3.0 -7.5 71 36 19   99.93   -9 LegendNANA
11:00 -2.4 -6.6 73 35 20   99.92   -8 LegendNANA
12:00 -1.9 -6.9 69 35 20   99.94   -8 LegendNANA
13:00 -2.2 -6.8 71 34 22   99.96   -8 LegendNANA
14:00 -2.8 -7.1 72 34 24   99.98   -9 LegendNANA
15:00 -3.8 -7.2 77 34 22   100.02   -10 LegendNANA
16:00 -4.8 -7.6 81 33 19   100.06   -11 LegendNANA
17:00 -4.7 -7.5 81 33 22   100.09   -12 LegendNANA
18:00 -4.6 -7.5 80 32 17   100.10   -10 LegendNANA
19:00 -4.7 -8.6 74 35 22   100.13   -12 LegendNANA
20:00 -4.9 -9.1 72 36 24   100.13   -12 LegendNANA
21:00 -4.8 -8.6 75 36 19   100.13   -11 LegendNANA
22:00 -4.8 -8.4 76 36 15   100.13   -10 LegendNANA
23:00 -5.1 -8.7 76 35 2   100.13   -6 LegendNANA

Notes on Data Quality.

Legend

  • E = Estimated
  • M = Missing
  • NA = Not Available
  • ‡ = Partner data that is not subject to review by the National Climate Archives
Date modified: